Main page
METAR-TAF:

METAR-TAF

Airports :

Altamira Airport

Altamira, Pará, Brazil

latitude: 03-12S, longitude: 052-12W, elevation: 74 m

Current weather observation

The report was made 1 hour and 25 minutes ago, at 16:00 UTC
Wind 3 kt from the Southeast
Temperature 29°C
Humidity 79%
Pressure 1011 hPa
Visibility 10 km or more
Broken clouds at a height of 2500 ft

METAR: SBHT 041600Z 13003KT 9999 BKN025 29/25 Q1011

Time: 14:25 (17:25 UTC)


TAF: missing

Weather observations and forecasts of more than 4000 airports (METAR and TAF reports).

The available stations are represented by yellow and red dots on the map.

Hover mouse over dot to see the name of the station.

Then click to see weather observations and forecasts.

To change the map : click on the green buttons with a black cross to zoom in, on the green button with a dash to zoom out, or on the green arrows for adjacent maps.


METAR-TAF: